Theta_e
301 305 317 331 337 335 334 333 335 336 337 336 337 336 335 337 339 339 341 333 336 339 342 345 345 345 347 348 346 344 343 340 338 337 336 333 332 330 330 329 329 329 328
295 299 304 318 331 335 332 334 334 335 335 335 335 334 335 336 337 337 336 336 333 336 342 343 341 340 337 349 346 344 341 338 336 336 333 332 330 330 329 330 329 328 327
291 295 298 304 323 333 332 333 332 334 334 334 334 333 332 332 331 332 335 335 337 331 338 340 338 341 344 344 345 341 337 335 334 334 332 331 330 329 329 327 327 326 325
291 290 292 297 302 313 330 330 331 330 331 330 326 317 318 322 325 328 328 331 338 339 333 337 339 341 343 343 342 339 336 334 333 332 331 329 329 328 326 325 324 324 323
288 287 289 293 298 303 326 326 327 328 321 318 312 309 307 309 311 315 319 323 333 336 338 332 333 333 335 337 338 337 335 333 332 331 329 329 327 326 324 323 324 323 322
288 285 288 291 294 298 307 326 324 323 317 311 306 305 305 304 305 306 308 314 318 333 335 335 332 332 333 336 337 336 336 334 332 330 329 327 326 324 324 324 323 322 321
287 286 286 287 290 293 297 301 322 314 308 308 306 305 305 304 303 303 304 307 312 321 333 332 332 332 333 333 335 335 335 334 332 329 327 326 324 324 323 323 322 321 319
286 286 284 285 289 291 294 297 314 309 309 310 309 306 303 304 304 302 302 302 305 312 328 331 331 331 331 332 330 332 332 333 331 329 327 325 325 324 323 322 321 319 318
286 285 284 284 286 288 289 292 297 313 308 307 310 310 301 302 300 302 300 301 301 308 315 329 329 328 329 328 328 327 328 329 329 328 327 326 324 323 322 320 319 317 315
284 284 284 283 283 284 287 289 295 307 315 308 309 309 308 308 301 299 300 300 300 300 307 315 324 323 325 326 323 321 323 325 328 327 327 325 323 323 320 319 317 316 314
281 283 284 282 281 282 284 286 288 290 316 314 312 306 306 305 306 301 295 296 300 298 303 308 319 320 321 321 321 320 321 324 326 326 326 325 324 321 320 318 317 314 313
280 281 282 281 281 280 281 283 286 288 292 315 315 313 308 305 304 302 300 296 295 296 298 306 312 316 318 318 318 317 319 322 326 325 325 324 321 320 319 317 314 313 311
276 279 279 279 280 279 280 282 284 287 291 303 313 314 313 312 309 307 303 297 294 293 296 299 306 313 315 316 316 315 317 320 322 324 324 321 319 317 316 314 313 311 309
276 277 277 277 278 279 280 281 284 286 290 294 313 313 312 311 310 308 304 298 291 290 294 293 297 310 313 315 314 312 315 316 319 321 319 317 315 313 311 310 309 307 306
275 275 275 276 278 279 280 281 282 285 289 292 309 311 311 309 310 309 308 306 304 294 291 293 297 299 311 313 312 314 313 313 314 314 313 311 309 308 307 306 304 303 303
273 274 274 275 276 278 280 280 281 284 287 292 304 309 309 309 308 308 308 308 304 304 294 292 292 296 306 307 308 310 309 307 309 309 308 307 305 304 303 302 301 301 300
273 273 274 274 275 276 279 280 281 283 285 291 295 307 308 308 307 306 305 303 305 306 299 288 291 296 302 304 303 304 304 304 304 306 305 303 303 302 301 300 299 299 298
272 272 272 274 275 276 278 279 280 282 284 287 291 306 306 306 306 306 305 302 303 300 299 292 293 293 299 302 301 299 300 301 301 303 302 301 301 300 299 298 297 296 295
270 271 273 273 274 275 277 279 281 282 284 287 292 305 305 305 304 304 304 301 300 300 299 296 294 297 296 299 297 297 296 297 299 301 300 300 299 298 297 296 296 294 294
269 271 272 273 274 276 278 280 282 283 285 287 292 303 305 305 304 303 301 299 298 297 297 297 294 293 295 295 296 293 292 294 294 295 297 297 297 296 295 295 294 293 292
269 271 272 274 276 277 280 282 284 285 285 286 291 301 305 304 303 304 301 297 297 296 296 294 292 292 291 291 291 293 291 291 291 292 291 291 290 288 290 293 291 291 291
269 271 272 274 275 278 283 286 289 287 287 286 290 295 304 301 301 303 301 299 299 296 295 294 293 291 291 294 293 291 289 287 284 289 289 287 286 285 287 288 291 291 290
269 270 272 274 275 278 284 286 290 288 286 286 290 294 301 302 301 302 301 299 300 300 299 297 293 294 291 294 292 290 289 289 285 288 287 282 283 281 286 289 291 289 289
268 269 272 274 276 277 283 286 289 285 285 286 289 292 300 300 300 301 297 296 298 299 299 299 297 297 296 296 294 292 290 287 286 287 284 279 281 279 284 285 290 288 287
267 269 272 273 275 277 282 285 286 285 285 285 287 289 298 299 300 300 296 293 294 296 299 300 299 299 299 298 296 291 285 283 281 283 282 280 279 278 281 282 285 286 287
267 270 271 274 277 276 280 284 285 284 284 285 285 286 292 298 300 300 295 292 290 292 294 295 297 297 297 296 295 291 287 284 282 279 281 278 278 277 276 280 280 281 281
Wind_Speed
11 12 14 10 5 4 5 5 7 8 5 5 4 8 7 4 4 3 1 5 9 11 10 10 12 15 22 27 28 27 25 26 26 24 23 22 21 19 19 19 19 19 19
12 12 13 14 10 3 6 5 6 6 5 5 3 5 6 6 5 4 3 5 6 8 8 8 6 7 5 34 31 29 29 28 27 25 25 22 21 19 19 20 20 19 19
14 14 12 13 13 7 8 6 6 7 7 6 5 3 4 5 3 6 5 3 7 6 10 10 3 9 20 16 28 32 31 29 26 25 25 23 22 19 18 19 19 18 18
16 14 11 12 13 15 5 6 5 5 6 3 2 3 3 4 6 5 6 4 5 5 6 12 18 25 8 29 33 28 28 26 25 27 26 24 22 19 19 19 19 18 18
16 14 12 12 14 12 11 6 4 7 2 3 3 2 2 2 4 5 7 5 7 4 4 11 19 22 24 24 27 27 27 26 25 26 26 25 23 19 20 20 19 18 18
17 14 12 14 14 12 14 6 5 3 1 3 4 3 2 2 2 4 5 6 5 5 8 10 9 11 25 26 29 30 31 29 27 27 26 26 23 21 20 20 20 19 17
17 14 11 14 12 12 14 16 4 4 2 3 3 2 2 2 3 3 4 5 5 6 8 9 7 9 12 28 28 29 30 30 29 27 26 25 23 22 21 21 20 18 16
18 15 13 13 14 13 14 12 7 2 2 7 3 2 2 1 1 2 3 4 5 4 7 12 11 13 13 13 19 27 29 29 29 28 26 26 24 23 21 20 19 17 15
17 17 15 13 13 13 11 15 16 10 6 6 6 3 3 4 2 1 3 4 6 4 5 11 13 12 15 12 19 20 26 28 29 28 27 26 24 23 22 20 18 17 15
18 16 16 14 14 11 13 12 13 17 9 8 5 4 1 3 3 2 2 3 5 6 6 4 12 12 12 13 17 16 21 26 28 28 27 26 24 22 22 20 18 17 15
18 17 16 16 14 11 13 15 16 16 11 9 8 4 3 2 2 3 2 1 3 5 5 3 8 11 13 13 12 18 23 24 27 27 27 25 23 22 21 20 19 17 15
12 16 17 15 14 14 14 13 15 15 17 11 10 10 8 6 5 4 3 2 3 3 4 4 2 12 11 10 14 23 23 25 25 26 26 25 23 22 21 20 18 17 14
12 13 17 16 14 14 14 14 15 15 16 15 10 11 10 10 4 3 5 4 3 1 1 4 2 9 12 12 13 17 18 23 25 25 26 23 22 21 20 18 17 16 14
13 17 16 16 18 17 15 14 11 12 15 14 15 13 9 8 7 7 9 12 4 1 2 2 3 8 9 13 12 18 12 17 22 24 25 24 21 20 18 17 16 15 14
13 17 18 18 18 17 16 15 11 14 14 14 15 12 10 8 8 10 10 15 16 10 2 3 3 4 9 11 12 13 13 21 24 25 24 22 21 20 17 17 16 14 14
16 17 17 17 18 17 17 15 12 15 14 13 13 13 12 9 10 8 10 8 2 16 8 2 0 2 8 8 13 12 16 23 26 26 23 21 20 19 18 16 15 15 13
17 17 17 18 18 18 16 15 14 16 16 17 18 13 15 14 12 11 9 4 6 10 17 3 3 2 8 13 13 14 13 14 14 25 24 21 20 19 18 16 15 14 11
17 17 17 17 17 17 17 16 16 15 16 18 17 15 16 12 16 16 12 9 8 6 15 18 6 4 7 14 15 16 10 10 12 19 23 22 20 19 17 15 14 12 11
18 17 16 17 18 18 18 16 17 16 18 18 16 17 17 18 17 14 15 11 9 9 12 14 11 6 5 12 14 12 12 11 10 18 21 21 20 19 17 16 14 12 11
17 17 16 17 17 17 17 17 17 16 16 17 15 19 18 20 20 19 16 15 14 13 13 13 12 11 10 11 14 14 11 10 11 10 12 13 16 17 15 15 14 12 10
16 16 17 17 17 15 12 16 18 16 17 17 16 17 19 22 27 24 16 16 18 15 14 13 12 11 11 13 15 9 13 12 11 9 9 8 7 5 6 11 10 11 9
16 16 16 16 18 13 27 29 29 16 14 14 13 17 18 24 25 30 30 31 26 22 18 15 14 16 17 14 14 13 15 14 8 3 10 7 5 5 4 4 11 10 8
16 17 17 17 18 18 30 34 35 10 9 12 10 16 15 15 23 21 28 31 30 34 32 23 22 20 19 19 19 17 17 13 8 11 12 6 4 4 3 7 11 8 7
15 16 17 18 18 16 32 35 37 12 10 10 7 14 17 18 20 21 20 20 21 20 21 16 21 23 20 19 20 20 18 9 12 11 6 5 5 4 3 4 11 7 6
15 15 15 17 18 17 32 34 30 15 11 10 5 9 9 16 25 28 22 21 18 15 16 19 21 24 27 28 22 15 12 14 10 9 2 5 6 5 3 3 4 7 7
14 13 16 15 21 17 29 34 30 14 12 9 7 6 14 10 26 31 22 21 20 18 17 14 14 18 23 25 31 20 18 16 11 5 6 5 9 5 4 2 4 3 3
Wind_Direction
331 328 319 314 275 276 271 274 282 282 291 268 241 262 268 290 258 282 53 302 283 276 278 242 247 225 200 185 167 151 143 140 138 132 122 125 123 122 124 121 116 113 105
336 331 323 317 304 236 264 255 265 263 276 274 256 255 262 277 290 285 278 288 295 268 214 180 156 196 209 211 161 149 142 140 133 128 126 129 124 125 125 121 114 110 106
333 333 324 320 317 277 252 247 257 259 249 255 278 20 343 300 325 301 302 294 284 232 199 159 135 291 239 194 161 140 142 130 129 131 128 131 125 128 127 118 115 112 108
338 334 323 319 316 321 231 239 231 277 247 229 153 52 22 328 323 316 299 299 261 248 214 145 95 61 126 169 124 120 125 128 140 131 135 129 129 133 129 125 120 117 112
344 337 328 316 320 317 276 220 219 237 186 134 110 70 14 14 332 315 310 308 282 252 163 160 135 122 114 112 125 132 132 139 144 140 135 133 132 139 136 131 121 116 112
339 335 325 321 329 322 314 237 210 115 162 133 112 97 63 18 353 339 321 309 304 240 161 165 147 140 145 144 148 152 152 150 148 142 139 134 139 143 138 130 124 118 115
337 335 327 324 327 310 311 321 233 157 145 137 121 125 108 73 63 358 335 324 309 293 175 177 173 155 158 153 157 156 153 153 146 145 139 140 145 144 139 131 122 120 113
330 332 330 321 325 311 315 308 270 149 154 172 168 148 173 202 109 12 10 345 316 306 215 172 178 167 160 158 154 155 153 151 145 145 144 145 146 140 133 126 122 118 112
326 332 327 324 323 318 312 308 313 198 187 191 221 159 144 218 142 348 4 8 341 326 312 188 164 160 158 150 147 153 156 149 147 147 147 147 141 138 132 127 119 119 114
328 324 325 326 321 316 307 312 293 296 200 188 199 216 296 146 173 186 43 355 350 358 332 318 150 141 145 142 145 149 151 148 146 148 147 141 138 135 131 125 122 114 109
322 322 324 325 318 314 310 305 316 305 253 200 195 153 190 111 257 137 154 196 21 344 342 359 157 136 136 131 138 140 137 144 143 149 143 140 139 134 128 125 117 114 106
318 320 323 320 314 310 310 309 299 302 299 231 200 192 184 172 187 171 130 102 111 333 342 322 115 128 124 126 128 132 137 145 144 143 141 138 134 130 125 119 118 112 109
314 316 319 317 310 306 300 300 300 292 289 290 207 198 200 210 171 146 128 131 132 266 2 311 54 106 112 118 126 131 142 140 141 142 133 128 124 125 122 120 117 113 103
307 309 310 307 303 303 301 298 292 294 292 299 232 212 197 198 177 162 152 144 114 96 12 294 346 106 118 116 126 116 121 126 130 127 120 118 114 116 116 117 111 105 101
305 304 305 301 302 301 298 298 293 295 289 280 258 205 198 181 176 173 163 169 154 153 138 267 92 355 112 116 120 117 113 113 111 109 110 112 113 113 120 114 108 105 97
305 303 303 302 301 299 297 296 295 293 288 279 278 200 191 178 172 168 168 180 137 146 131 156 41 107 114 115 111 109 115 109 111 110 113 115 121 127 118 117 113 105 101
305 304 303 302 299 298 296 296 290 281 278 277 293 200 193 177 176 170 173 162 174 166 144 62 112 146 131 129 117 111 113 112 115 122 126 129 130 125 125 120 114 113 112
306 304 303 298 299 298 296 294 293 291 289 284 296 203 193 180 180 177 173 171 169 176 152 146 146 123 137 136 122 112 113 115 123 128 134 132 128 129 125 122 121 118 105
306 306 304 303 300 298 294 291 283 282 276 280 272 225 187 181 179 175 172 164 148 148 148 146 141 135 126 135 116 114 114 112 117 133 132 133 137 133 132 132 130 117 105
304 306 307 301 299 295 291 288 286 279 279 280 271 246 189 189 179 175 169 160 151 146 146 148 145 141 142 149 130 136 125 123 132 127 127 133 138 133 133 137 127 117 110
303 306 307 307 303 298 299 303 291 284 272 274 261 257 192 189 184 176 167 162 154 152 153 154 151 152 152 153 149 147 130 137 128 137 135 131 128 111 132 130 125 120 120
310 312 313 311 312 309 313 312 306 275 257 263 261 278 193 188 183 180 173 167 162 156 160 158 166 166 163 159 148 150 141 142 132 162 132 136 130 121 150 149 142 129 120
314 314 316 319 316 317 322 326 331 305 267 259 262 275 191 188 182 181 173 170 170 170 169 169 167 172 168 166 154 153 155 159 133 149 130 128 111 128 137 134 139 128 124
315 314 316 317 319 320 332 331 339 316 302 271 276 300 193 183 183 177 168 171 170 174 168 172 174 173 167 163 163 157 152 118 115 141 128 122 155 131 123 127 145 139 131
313 312 314 315 321 323 331 334 342 328 322 305 307 308 246 183 179 174 168 168 163 169 171 164 168 172 167 160 155 140 144 131 131 160 129 114 161 111 106 121 133 146 139
307 314 312 313 320 324 328 335 344 340 330 326 313 300 327 207 183 175 170 165 164 164 157 147 157 159 163 162 161 160 156 153 138 123 191 113 147 145 133 168 159 171 140